This is the latest recevied weather packets stored in our database for station/object K6LCM-13. If no packets are shown the sender has not sent any weather packets the latest 10 day(s).
| Time | Temp. | Humidity | Pressure | Rain* | Wind** | Luminosity | Snow |
|---|---|---|---|---|---|---|---|
| 1778218493 | 14.44° C | 93% | 1014.5 hPa | 0 mm | - | - | - |
| 1778217953 | 14.44° C | 93% | 1014.5 hPa | 0 mm | - | - | - |
| 1778217413 | 14.44° C | 93% | 1014.4 hPa | 0 mm | - | - | - |
| 1778216874 | 14.44° C | 92% | 1014.4 hPa | 0 mm | - | - | - |
| 1778216333 | 14.44° C | 92% | 1014.3 hPa | 0 mm | - | - | - |
| 1778215793 | 14.44° C | 92% | 1014.3 hPa | 0 mm | - | - | - |
| 1778215253 | 14.44° C | 92% | 1014.2 hPa | 0 mm | - | - | - |
| 1778214713 | 14.44° C | 92% | 1014.1 hPa | 0 mm | - | - | - |
| 1778214173 | 14.44° C | 91% | 1014 hPa | 0 mm | - | - | - |
| 1778213633 | 15° C | 91% | 1013.8 hPa | 0 mm | - | - | - |
| 1778213093 | 15° C | 91% | 1013.7 hPa | 0 mm | - | - | - |
| 1778212553 | 15° C | 91% | 1013.7 hPa | 0 mm | - | - | - |
| 1778211473 | 15° C | 90% | 1013.6 hPa | 0 mm | - | - | - |
| 1778210933 | 15° C | 89% | 1013.3 hPa | 0 mm | - | - | - |
| 1778210393 | 15° C | 89% | 1013.3 hPa | 0 mm | - | - | - |
| 1778209853 | 15.56° C | 88% | 1013 hPa | 0 mm | - | - | - |
| 1778209313 | 15.56° C | 87% | 1013.1 hPa | 0 mm | - | - | - |
| 1778208773 | 16.11° C | 85% | 1013 hPa | 0 mm | - | - | - |
| 1778208233 | 16.11° C | 84% | 1013.1 hPa | 0 mm | - | - | - |
| 1778207154 | 16.67° C | 82% | 1013 hPa | 0 mm | - | - | - |
| 1778206613 | 17.22° C | 81% | 1012.8 hPa | 0 mm | - | - | - |
| 1778206073 | 17.78° C | 80% | 1012.8 hPa | 0 mm | - | - | - |
| 1778204549 | 18.33° C | 77% | 1013 hPa | 0 mm | - | - | - |
| 1778204009 | 18.33° C | 78% | 1013 hPa | 0 mm | - | - | - |
| 1778203468 | 18.33° C | 80% | 1013.1 hPa | 0 mm | - | - | - |
* Rain latest hour (hover to see other rain measurements)
** Current wind speed in m/s (hover to see current wind gust speed)